sat.trackr.live / text

‹ back to catalog

KUIPER-00186

NORAD 67140 · 2025-301H

PAYLOAD ACTIVE UNKNOWN

§ Identity

Operator
Country
US
Launch date
2025-12-16
Launch site
AFETR
Launch vehicle
Mass (kg)
RCS (m²)

External: N2YO · Heavens-Above · Gunter

§ Orbital elements

Epoch: 2026-05-25T03:45:44.567712Z

Period
97.30 min
Inclination
51.9014°
Eccentricity
0.0000604
Mean motion
14.79925611 rev/d
Perigee alt
629.1 km
Apogee alt
630.0 km
Semi-major
7,007.7 km
B*
-8.4622e-4
RAAN
99.9869°
Arg perigee
113.0949°
Mean anomaly
247.0077°
Rev number
2,488

§ Raw data

KUIPER-001861 67140U 25301H   26145.15676583 -.00006664  00000+0 -84622-3 0  99962 67140  51.9014  99.9869 0000604 113.0949 247.0077 14.79925611 24881

JSON: /api/v1/satellites/67140 · /tle

For live sub-satellite position, see the globe view (requires WebGL).

§ Visibility from observer

Set your observer location to see the next 7 days of passes ≥ 10°. The values pass through the URL so the page stays shareable.

No JS? Fill the form by hand. The geolocation button needs JavaScript.